[[{"header":{"parameterUnit":"m.s-1","parameterCategory":1,"la1":30.2992,"la2":30.254,"lo1":-89.0895,"lo2":-89.0443,"dy":0.0025,"dx":0.0025,"nx":19,"ny":19,"refTime":"2026-05-08T09:00:00:Z","depth":0,"parameterNumber":2,"parameterNumberName":"U-component_of_WINDS"},"data":[0,0,0,-1.4871,-1.4873,-1.492,-1.492,-1.5004,-1.5005,0,0,0,0,0,0,0,0,0,0,0,-1.487,-1.4871,-1.4871,-1.4873,-1.492,-1.492,-1.5004,-1.5005,0,0,0,0,0,0,0,0,0,0,0,-1.487,-1.4871,-1.4872,-1.4873,-1.492,-1.492,-1.5004,-1.496,0,0,0,0,0,0,0,0,0,0,-1.491,-1.4921,-1.4871,-1.4872,-1.4873,-1.492,-1.492,-1.4957,-1.4963,-1.4992,0,-1.502,0,-1.5014,-1.5012,-1.5012,0,0,0,-1.4864,-1.4917,-1.4918,-1.4872,-1.4874,-1.492,-1.4896,-1.496,-1.4966,-1.4999,-1.5021,-1.5024,-1.5015,-1.5012,-1.5013,-1.5209,-1.5211,0,0,-1.4861,-1.4886,-1.4914,-1.4922,-1.4915,-1.4895,-1.4898,-1.4963,-1.499,-1.5021,-1.5025,-1.5017,-1.5013,-1.5014,-1.5208,-1.521,0,0,0,-1.486,-1.4885,-1.4883,-1.4919,-1.4926,-1.4896,-1.49,-1.4987,-1.4984,-1.5026,-1.5018,-1.5014,-1.5015,-1.5206,-1.5209,-1.5301,0,0,0,-1.4858,-1.4884,-1.4883,-1.4899,-1.4925,-1.4957,-1.4923,-1.498,-1.4986,-1.5017,-1.5014,-1.5016,-1.5205,-1.5208,-1.5295,-1.5342,0,0,0,-1.4863,-1.4884,-1.4895,-1.49,-1.4921,-1.4955,-1.4956,-1.4981,-1.4982,-1.5012,-1.5016,-1.5204,-1.5207,-1.529,-1.5333,-1.5402,0,0,0,-1.4876,-1.4977,-1.4897,-1.5006,-1.4921,-1.5011,-1.4955,-1.5021,-1.5058,-1.5014,-1.5205,-1.5208,-1.5288,-1.5328,-1.5397,-1.5467,-1.5498,0,0,-1.5017,-1.4995,-1.5057,-1.4987,-1.5097,-1.5001,-1.5125,-1.5136,-1.5116,-1.518,-1.5184,-1.5297,-1.5332,-1.5401,-1.5656,-1.5681,0,0,0,-1.511,-1.5156,-1.5179,-1.5215,-1.5224,-1.5236,-1.5224,-1.5228,-1.528,-1.5153,-1.5338,-1.5358,-1.5398,-1.543,-1.5451,-1.5485,-1.5223,-1.5223,-1.5223,-1.5349,-1.5317,-1.5418,-1.5391,-1.5426,-1.5412,-1.5438,-1.5441,-1.5399,-1.5443,-1.5463,-1.5621,-1.566,-1.5676,-1.5711,-1.5494,-1.5495,-1.5495,-1.5495,-1.5556,-1.5617,-1.5556,-1.5633,-1.5598,-1.5662,-1.5652,-1.562,-1.5676,-1.5604,-1.5637,-1.5564,-1.5704,-1.5733,-1.5502,-1.5501,-1.55,-1.5499,-1.5499,-1.5713,-1.5736,-1.5737,-1.5784,-1.5824,-1.5793,-1.5849,-1.5815,-1.5783,-1.5815,-1.5834,-1.5833,-1.5829,-1.5826,-1.5826,-1.5827,-1.5827,-1.5828,-1.5828,-1.5876,-1.5874,-1.5925,-1.5942,-1.5959,-1.5979,-1.5964,-1.5981,-1.5991,-1.5962,-1.5962,-1.5918,-1.5722,-1.5676,-1.5837,-1.5835,-1.5834,-1.5833,-1.5832,-1.6105,-1.6047,-1.6127,-1.6144,-1.6161,-1.6204,-1.6157,-1.6195,-1.6203,-1.6233,-1.6179,-1.6039,-1.6014,-1.5997,-1.5959,-1.6183,-1.6183,-1.6184,-1.6184,-1.624,-1.6222,-1.6296,-1.6327,-1.6352,-1.6318,-1.641,-1.6398,-1.6378,-1.6382,-1.6343,-1.6288,-1.6272,-1.6257,-1.6234,-1.6198,-1.6479,-1.6479,-1.6479,-1.6381,-1.6363,-1.6449,-1.6426,-1.6435,-1.6445,-1.6531,-1.657,-1.6534,-1.649,-1.6384,-1.6372,-1.6282,-1.6254,-1.6214,-1.618,-1.6113,0,0]},{"header":{"parameterUnit":"m.s-1","parameterCategory":1,"la1":30.2992,"la2":30.254,"lo1":-89.0895,"lo2":-89.0443,"dy":0.0025,"dx":0.0025,"nx":19,"ny":19,"refTime":"2026-05-08T09:00:00:Z","depth":0,"parameterNumber":3,"parameterNumberName":"V-component_of_WINDS"},"data":[0,0,0,-3.4943,-3.4944,-3.4998,-3.4998,-3.5073,-3.5073,0,0,0,0,0,0,0,0,0,0,0,-3.4932,-3.4933,-3.4943,-3.4944,-3.4998,-3.4998,-3.5073,-3.5073,0,0,0,0,0,0,0,0,0,0,0,-3.4932,-3.4933,-3.4934,-3.4945,-3.4998,-3.4998,-3.5072,-3.5029,0,0,0,0,0,0,0,0,0,0,-3.4976,-3.4972,-3.4933,-3.4934,-3.4945,-3.4998,-3.4998,-3.5027,-3.5032,-3.5051,0,-3.5071,0,-3.5074,-3.5079,-3.5079,0,0,0,-3.494,-3.4968,-3.4978,-3.4934,-3.4946,-3.4998,-3.4973,-3.503,-3.5035,-3.5058,-3.5072,-3.5075,-3.5075,-3.5079,-3.508,-3.5208,-3.5209,0,0,-3.4937,-3.4945,-3.4974,-3.4982,-3.4975,-3.4971,-3.4974,-3.5033,-3.5049,-3.5073,-3.5077,-3.5076,-3.508,-3.5081,-3.5207,-3.5208,0,0,0,-3.4932,-3.4943,-3.4951,-3.4979,-3.4988,-3.4973,-3.4976,-3.5046,-3.5048,-3.5077,-3.5077,-3.508,-3.5081,-3.5206,-3.5208,-3.5254,0,0,0,-3.493,-3.4939,-3.495,-3.4955,-3.4987,-3.5018,-3.4988,-3.5044,-3.5051,-3.5077,-3.508,-3.5082,-3.5205,-3.5207,-3.5251,-3.5274,0,0,0,-3.4927,-3.4939,-3.4949,-3.4955,-3.4979,-3.5017,-3.5022,-3.5045,-3.5051,-3.5079,-3.5082,-3.5205,-3.5207,-3.5248,-3.527,-3.531,0,0,0,-3.4926,-3.499,-3.495,-3.502,-3.4978,-3.5046,-3.5022,-3.5072,-3.5102,-3.5081,-3.5206,-3.5207,-3.5247,-3.5267,-3.5307,-3.5344,-3.536,0,0,-3.501,-3.5,-3.5041,-3.5007,-3.5083,-3.5037,-3.512,-3.514,-3.5136,-3.5184,-3.5187,-3.5252,-3.5269,-3.5309,-3.5452,-3.5465,0,0,0,-3.507,-3.5099,-3.5118,-3.5147,-3.5164,-3.518,-3.5187,-3.5194,-3.5235,-3.5163,-3.5277,-3.5287,-3.531,-3.5327,-3.5339,-3.5357,-3.5216,-3.5216,-3.5216,-3.5199,-3.519,-3.5256,-3.5253,-3.5282,-3.5288,-3.5309,-3.532,-3.5303,-3.533,-3.5344,-3.5432,-3.5452,-3.5461,-3.548,-3.5363,-3.5363,-3.5364,-3.5364,-3.532,-3.536,-3.5335,-3.539,-3.5379,-3.5425,-3.5432,-3.5418,-3.5458,-3.5421,-3.544,-3.5399,-3.5476,-3.5492,-3.5367,-3.5367,-3.5366,-3.5366,-3.5366,-3.5403,-3.5421,-3.5429,-3.5469,-3.5501,-3.5495,-3.5534,-3.5524,-3.5513,-3.5533,-3.5545,-3.5545,-3.5541,-3.554,-3.554,-3.554,-3.5541,-3.5541,-3.5541,-3.5486,-3.5494,-3.5529,-3.5552,-3.5568,-3.5588,-3.5594,-3.5609,-3.5623,-3.5612,-3.5612,-3.5591,-3.5485,-3.5458,-3.5546,-3.5545,-3.5544,-3.5544,-3.5544,-3.5611,-3.5581,-3.5635,-3.5652,-3.5676,-3.5708,-3.5693,-3.5725,-3.5737,-3.5756,-3.5731,-3.5655,-3.5643,-3.5634,-3.5611,-3.5733,-3.5733,-3.5733,-3.5733,-3.568,-3.5674,-3.5726,-3.5753,-3.5778,-3.577,-3.5829,-3.5833,-3.5833,-3.5839,-3.5819,-3.5789,-3.578,-3.5774,-3.5762,-3.574,-3.5892,-3.5892,-3.5893,-3.5756,-3.5751,-3.5805,-3.5804,-3.5822,-3.5838,-3.5893,-3.5923,-3.5916,-3.5899,-3.5842,-3.5836,-3.5786,-3.5771,-3.5752,-3.5734,-3.5694,0,0]}]]